UPSVAC Airport Information Service

Leipzig Halle Airport

ICAO: EDDP Country: Germany
Latitude: 51.4324 Longitude: 12.2416
Latest Arrival : SOX242 (KCVG-EDDP) Latest Departure : SOX108 (EDDP-EGNX)


WX CaptureLIVE
Data provided by noaa.gov | Fetched at 16:24:45

METAR : EDDP 191520Z 06008KT 030V090 9999 SCT042 14/05 Q1017 NOSIG

TAF : EDDP 191100Z 1912/2012 05006KT 9999 BKN035


Runway Data for EDDP
Data provided by openaviationdata.com

Runway ID Mag Var Hdg Length Elevation Surface ILS Freq ILS Id ILS Slope
8 1 84° 11786 ft 427 ft Concrete 108.55 ILNE 3
10 1 104° 8183 ft 427 ft Concrete 111.9 ILZE 3
26 1 264° 11786 ft 427 ft Concrete 108.35 ILNW 3
28 1 284° 8183 ft 427 ft Concrete 110.3 ILZW 3

Leipzig Halle Airport, Germany
Use only for reference purposes



Not for navigational purposes.